{"data":{"norad_id":54823,"epoch":"2026-05-25T04:20:04.608096Z","epoch_age_seconds":73542,"freshness":"FRESH","line1":"1 54823U 22177D   26145.18060889  .00000539  00000+0  29099-4 0  9998","line2":"2 54823  43.0050  63.9122 0001154 259.1793 100.8929 15.27578232188622","mean_motion":15.27578232,"eccentricity":0.0001154,"inclination_deg":43.005,"raan_deg":63.9122,"arg_perigee_deg":259.1793,"mean_anomaly_deg":100.8929,"bstar":2.9099e-5,"rev_number":18862,"period_min":94.266857816811,"perigee_km":482.26260858638,"apogee_km":483.84617155921,"semimajor_km":6861.1913900728,"source":"CELESTRAK","updated_at":"2026-05-25T13:38:17.720708Z"}}